Flight Track Log - Related Links

Times and Time Zones

All times are in EDT time to prevent confusion due to time zone crossing. See the AMF1062 flight status page for this flight to view local times or setup timezone preferences in your user account.

Time Position Orientation Groundspeed Altitude Reporting Facility
EDT Latitude Longitude Course Direction KTS MPH feet Rate Location/Type
Fri 06:35:07 PM 43.5647 -116.2919 132° Southeast 161 185 5,400  Level Salt Lake Center
Fri 06:36:09 PM 43.5131 -116.2569 154° Southeast 197 227 7,100 1,317 Climbing Salt Lake Center
Fri 06:37:10 PM 43.4839 -116.1886 120° Southeast 198 228 8,100 976 Climbing Salt Lake Center
Fri 06:38:12 PM 43.4536 -116.1256 123° Southeast 205 236 9,100 677 Climbing Salt Lake Center
Fri 06:39:14 PM 43.4186 -116.0533 124° Southeast 215 247 9,500 195 Climbing Salt Lake Center
Fri 06:40:00 PM 43.3301 -115.8451 132° Southeast  Level FlightAware Approximate
Fri 06:40:15 PM 43.3833 -115.9769 122° Southeast 227 261 9,500  Level Salt Lake Center
Fri 06:41:17 PM 43.3472 -115.8994 123° Southeast 228 262 9,400  Descending Salt Lake Center
Fri 06:42:18 PM 43.3075 -115.8369 131° Southeast 228 262 9,500  Climbing Salt Lake Center
Fri 06:43:20 PM 43.2619 -115.7683 132° Southeast 233 268 9,400  Descending Salt Lake Center
Fri 06:44:21 PM 43.2186 -115.6981 130° Southeast 231 266 9,500  Climbing Salt Lake Center
Fri 06:45:23 PM 43.1783 -115.6314 130° Southeast 233 268 9,400  Descending Salt Lake Center
Fri 06:46:24 PM 43.1336 -115.5644 132° Southeast 230 265 9,500  Climbing Salt Lake Center
Fri 06:47:26 PM 43.0881 -115.4961 132° Southeast 231 266 9,400 -49 Descending Salt Lake Center
Fri 06:48:27 PM 43.0400 -115.4317 136° Southeast 231 266 9,400 49 Level Salt Lake Center
Fri 06:49:29 PM 42.9967 -115.3706 134° Southeast 233 268 9,500 48 Climbing Salt Lake Center
Fri 06:50:31 PM 42.9525 -115.3003 131° Southeast 234 269 9,500  Level Salt Lake Center
Fri 06:51:32 PM 42.9089 -115.2289 130° Southeast 233 268 9,500  Level Salt Lake Center
Fri 06:52:34 PM 42.8658 -115.1600 130° Southeast 229 264 9,500  Level Salt Lake Center
Fri 06:53:35 PM 42.8286 -115.0933 127° Southeast 228 262 9,500 -49 Level Salt Lake Center
Fri 06:54:37 PM 42.7894 -115.0208 126° Southeast 228 262 9,400 -49 Descending Salt Lake Center
Fri 06:55:38 PM 42.7547 -114.9442 122° Southeast 227 261 9,400  Level Salt Lake Center
Fri 06:56:40 PM 42.7228 -114.8656 119° Southeast 228 262 9,400 49 Level Salt Lake Center
Fri 06:57:41 PM 42.6900 -114.7942 122° Southeast 229 264 9,500  Climbing Salt Lake Center
Fri 06:58:43 PM 42.6486 -114.7231 128° Southeast 229 264 9,400  Descending Salt Lake Center
Fri 06:59:44 PM 42.6047 -114.6558 132° Southeast 228 262 9,500  Climbing Salt Lake Center
Fri 07:00:46 PM 42.5575 -114.5917 135° Southeast 229 264 9,400  Descending Salt Lake Center
Fri 07:01:47 PM 42.5133 -114.5344 136° Southeast 228 262 9,500 49 Climbing Salt Lake Center
Fri 07:02:49 PM 42.4744 -114.4636 127° Southeast 226 260 9,500  Level Salt Lake Center
Fri 07:03:50 PM 42.4433 -114.3836 118° Southeast 228 262 9,500  Level Salt Lake Center
Fri 07:04:51 PM 42.4131 -114.3111 119° Southeast 229 264 9,500  Level Salt Lake Center
Fri 07:05:53 PM 42.3817 -114.2319 118° Southeast 229 264 9,500  Level Salt Lake Center
Fri 07:06:54 PM 42.3550 -114.1633 118° Southeast 227 261 9,500  Level Salt Lake Center
Fri 07:08:00 PM 42.3264 -114.0823 115° Southeast  Level FlightAware Approximate
Fri 07:14:05 PM 42.1542 -113.6069 116° Southeast 229 264 9,500  Level Salt Lake Center
Fri 07:15:00 PM 42.1452 -113.5669 115° Southeast  Level FlightAware Approximate
Fri 07:15:06 PM 42.1350 -113.5289 108° East 224 258 9,500  Level Salt Lake Center
Fri 07:16:00 PM 42.1189 -113.4937 116° Southeast  Level FlightAware Approximate
Fri 07:16:08 PM 42.1133 -113.4486 110° East 226 260 9,500  Level Salt Lake Center
Fri 07:17:00 PM 42.0923 -113.4207 116° Southeast  Level FlightAware Approximate
Fri 07:17:09 PM 42.0878 -113.3511 109° East 228 262 9,500  Level Salt Lake Center
Fri 07:18:00 PM 42.0657 -113.3477 116° Southeast  Level FlightAware Approximate
Fri 07:18:11 PM 42.0664 -113.2719 110° East 227 261 9,500  Level Salt Lake Center
Fri 07:19:00 PM 42.0390 -113.2749 116° Southeast  Level FlightAware Approximate
Fri 07:19:12 PM 42.0408 -113.1956 114° Southeast 227 261 9,400  Level Salt Lake Center
Fri 07:20:14 PM 42.0036 -113.1275 126° Southeast 227 261 9,500 49 Climbing Salt Lake Center
Fri 07:21:15 PM 41.9514 -113.0781 145° Southeast 226 260 9,500  Level Salt Lake Center
Fri 07:22:17 PM 41.9061 -113.0194 136° Southeast 227 261 9,500  Level Salt Lake Center
Fri 07:23:19 PM 41.8633 -112.9592 134° Southeast 225 259 9,500  Level Salt Lake Center
Fri 07:24:20 PM 41.8203 -112.8986 134° Southeast 225 259 9,500  Level Salt Lake Center
Fri 07:25:22 PM 41.7697 -112.8242 132° Southeast 225 259 9,500  Level Salt Lake Center
Fri 07:26:24 PM 41.7289 -112.7614 131° Southeast 224 258 9,500  Level Salt Lake Center
Fri 07:27:25 PM 41.6894 -112.7000 131° Southeast 222 255 9,500  Level Salt Lake Center
Fri 07:28:20 PM 41.6558 -112.6389 126° Southeast 215 247 9,500  Level Salt Lake Center
Fri 07:28:50 PM 41.6328 -112.6067 134° Southeast 216 249 9,500  Level Salt Lake Center
Fri 07:29:29 PM 41.6072 -112.5808 143° Southeast 219 252 9,500  Level Salt Lake Center
Fri 07:29:51 PM 41.5928 -112.5542 126° Southeast 218 251 9,500  Level Salt Lake Center
Fri 07:30:31 PM 41.5639 -112.5225 141° Southeast 220 253 9,500  Level Salt Lake Center
Fri 07:30:52 PM 41.5492 -112.4944 125° Southeast 221 254 9,500  Level Salt Lake Center
Fri 07:31:32 PM 41.5200 -112.4667 145° Southeast 220 253 9,500  Level Salt Lake Center
Fri 07:31:52 PM 41.5042 -112.4381 126° Southeast 224 258 9,500  Level Salt Lake Center
Fri 07:32:34 PM 41.4628 -112.4042 148° Southeast 220 253 9,500  Level Salt Lake Center
Fri 07:32:59 PM 41.4439 -112.3811 138° Southeast 220 253 9,500  Level Salt Lake Center
Fri 07:33:36 PM 41.4111 -112.3572 151° Southeast 224 258 9,500 98 Level Salt Lake Center
Fri 07:34:00 PM 41.3917 -112.3331 137° Southeast 222 255 9,600 1,139 Climbing Salt Lake Center
Fri 07:34:55 PM 41.3486 -112.2989 149° Southeast 202 232 11,000 848 Climbing Salt Lake Center
Fri 07:35:39 PM 41.3128 -112.2803 159° South 204 235 11,000 91 Level Salt Lake Center
Fri 07:36:01 PM 41.2903 -112.2644 152° Southeast 216 249 11,100  Climbing Salt Lake Center
Fri 07:36:41 PM 41.2550 -112.2508 164° South 221 254 11,000 -90 Descending Salt Lake Center
Fri 07:37:08 PM 41.2214 -112.2308 156° South 224 258 11,000  Level Salt Lake Center
Fri 07:37:43 PM 41.1972 -112.2208 163° South 224 258 11,000 -76 Level Salt Lake Center
Fri 07:38:27 PM 41.1475 -112.1931 157° South 224 258 10,900 -98 Descending Salt Lake Center
Fri 07:38:44 PM 41.1286 -112.1850 162° South 222 255 10,900 98 Level Salt Lake Center
Fri 07:39:28 PM 41.0897 -112.1614 155° Southeast 221 254 11,000  Climbing Salt Lake Center
Fri 07:39:46 PM 41.0725 -112.1539 162° South 220 253 10,900  Descending Salt Lake Center
Fri 07:40:04 PM 41.0547 -112.1478 165° South 217 250 11,000 97 Climbing Salt Lake Center
Fri 07:40:48 PM 41.0147 -112.1394 171° South 213 245 11,000  Level Salt Lake Center
Fri 07:41:49 PM 40.9558 -112.1264 170° South 217 250 11,000  Level Salt Lake Center
Fri 07:42:11 PM 40.9311 -112.1214 171° South 218 251 11,000  Level Salt Lake Center
Fri 07:42:51 PM 40.8958 -112.1131 170° South 220 253 11,000  Level Salt Lake Center
Fri 07:43:06 PM 40.8731 -112.1100 174° South 220 253 11,000  Level Salt Lake Center
Fri 07:43:53 PM 40.8356 -112.1003 169° South 220 253 11,000 -716 Level Salt Lake Center
Fri 07:44:55 PM 40.7650 -112.0747 165° South 222 255 9,700 -1,463 Descending Salt Lake Center
Fri 07:45:56 PM 40.7042 -112.0550 166° South 225 259 8,000 -985 Descending Salt Lake Center
Fri 07:47:09 PM 40.6758 -111.9928 121° Southeast 208 239 7,500 -716 Descending Salt Lake Center
Fri 07:48:10 PM 40.7186 -111.9922 North 153 176 6,400 -1,286 Descending Salt Lake Center
Fri 07:49:01 PM 40.7489 -111.9925 360° North 140 161 5,100 -1,115 Descending Salt Lake Center
Fri 07:50:03 PM 40.7839 -111.9958 356° North 129 148 4,300 -774 Descending Salt Lake Center

Login

Don't have an account? Register now (free) for customized features, flight alerts, and more!